Regional Weather Roundup
Issued by NWS

Home | Current Version | Previous Version | Graphics & Text | Print | Product List | Glossary On
Versions: 1 2 3 4 5 6 7 8 9 10 11 12 13 14 15 16 17 18 19 20 21 22 23 24 25 26 27 28 29 30 31 32 33 34 35 36 37 38 39 40 41 42 43 44 45 46 47 48 49 50
681
ASUS44 KLIX 311410
RWRLA
LOUISIANA WEATHER ROUNDUP
NATIONAL WEATHER SERVICE NEW ORLEANS LA
800 AM CST SAT JAN 31 2015

NOTE: "FAIR" INDICATES FEW OR NO CLOUDS BELOW 12,000 FEET WITH NO
      SIGNIFICANT WEATHER AND/OR OBSTRUCTIONS TO VISIBILITY.
      SKY/WX - SKY CONDITION AND SIGNIFICANT WEATHER.
      TMP - AIR TEMPERATURE.    DP   - DEWPOINT TEMPERATURE.
      RH  - RELATIVE HUMIDITY.  PRES - PRESSURE.
      HX  - HEAT INDEX.         WCI  - WIND CHILL INDEX.

*  THESE STATIONS ARE NOT NWS OR FAA STATIONS AND ARE NOT UNDER
   NWS QUALITY CONTROL.

LAZ040-048-061>063-065-066-069-311500-
SOUTHEAST LOUISIANA

CITY           SKY/WX    TMP DP  RH WIND       PRES   REMARKS
N.O. AUDUBON     N/A     51  41  69 MISG        N/A
N.O. INTL ARPT MOSUNNY   49  38  65 NE7       30.30S
N.O. LAKEFRONT SUNNY     49  38  65 E14       30.32R
N.O. DOWNTOWN* NOT AVBL
SLIDELL        SUNNY     39  31  72 NE6       30.33R WCI  35
BATON ROUGE    SUNNY     40  31  70 E9        30.31S WCI  34
BOOTHVILLE     SUNNY     54  47  77 NE8       30.29R
BELLE CHASSE   MOSUNNY   48  40  73 NE8       30.29S
BOGALUSA*        N/A     36  32  85 N5        30.35S WCI  32
GALLIANO*      SUNNY     53  44  71 NE5       30.29R
NEW ROADS*     FAIR      42  29  61 E7        30.31S
GONZALES*      FAIR      42  35  76 CALM      30.30S
HAMMOND*       SUNNY     41  30  65 NE6       30.34S
HOUMA*         SUNNY     45  39  81 NE6       30.28S
PORT FOURCHON* SUNNY     57  48  72 E10       30.30R

$$

LAZ041-044-053-054-311500-
SOUTHWEST LOUISIANA

CITY           SKY/WX    TMP DP  RH WIND       PRES   REMARKS
LAKE CHARLES   MOSUNNY   43  37  79 E9        30.26R
LAFAYETTE      SUNNY     44  34  67 E7        30.28S
PATTERSON      SUNNY     46  37  71 NE7       30.29S
SALT POINT       N/A     46  38  73 VRB5      30.26S
NEW IBERIA     SUNNY     46  36  68 E9        30.28S
CHENAULT AIRPK SUNNY     43  36  75 E6        30.27R

$$

LAZ027-028-311500-
CENTRAL LOUISIANA

CITY           SKY/WX    TMP DP  RH WIND       PRES   REMARKS
FORT POLK      MOCLDY    43  32  65 E8        30.27R
ALEXANDRIA INT MOSUNNY   42  33  70 E10       30.29R
ALEXANDRIA     MOSUNNY   39  33  79 E3        30.30S

$$

LAZ001-002-311500-
NORTHWEST LOUISIANA

CITY           SKY/WX    TMP DP  RH WIND       PRES   REMARKS
SHREVEPORT     CLOUDY    44  31  60 SE9       30.28S
BARKSDALE AFB  CLOUDY    42  30  63 E6        30.29S
DTN SHREVEPORT CLOUDY    43  29  57 E7        30.29S

$$

LAZ014-016-311500-
NORTHEAST LOUISIANA

CITY           SKY/WX    TMP DP  RH WIND       PRES   REMARKS
MONROE         PTSUNNY   40  31  70 E3        30.34S
TALLULAH       CLOUDY    40  30  67 E7        30.34S

$$




USA.gov is the U.S. government's official web portal to all federal, state and local government web resources and services.